Location: Banksville Park
(38.5557°N, 75.1182°W)
Time: 12:10:37
(UTC+00:00)

CENTAUR R/B - Pass Details

Date: 23 January 2021
Orbit: 742 x 1446 km, 63.5° (Epoch: 02 March)

Event Time Altitude Azimuth Distance (km) Brightness Sun altitude
Rises 10:10:26 0° 179° (S) 3,276 5.4 -23.8°
Reaches altitude 10° 10:13:01 10° 167° (SSE) 2,417 4.8 -23.3°
Maximum altitude 10:17:42 28° 109° (ESE) 1,610 4.3 -22.4°
Drops below altitude 10° 10:23:02 10° 53° (NE) 2,778 5.5 -21.3°
Sets 10:26:11 0° 43° (NE) 3,858 6.1 -20.7°
